Time,TemperatureF,DewpointF,PressureIn,WindDirection,WindDirectionDegrees,WindSpeedMPH,WindSpeedGustMPH,Humidity,HourlyPrecipIn,Conditions,Clouds,dailyrainin,SoftwareType,DateUTC
2013-01-25 00:06:00,55.7,45.0,30.07,NW,313,7.0,10.0,67,0.00,,,0.00,weatherlink.com 1.10,2013-01-25 06:06:00,
2013-01-25 00:21:00,54.9,44.0,30.07,WNW,303,7.0,10.0,66,0.00,,,0.00,weatherlink.com 1.10,2013-01-25 06:21:00,
2013-01-25 00:36:00,54.1,44.0,30.06,WNW,300,2.0,6.0,68,0.00,,,0.00,weatherlink.com 1.10,2013-01-25 06:36:00,
2013-01-25 00:51:00,53.5,43.0,30.06,NW,308,1.0,5.0,68,0.00,,,0.00,weatherlink.com 1.10,2013-01-25 06:51:00,
2013-01-25 01:06:00,53.2,43.0,30.05,WNW,301,3.0,4.0,69,0.00,,,0.00,weatherlink.com 1.10,2013-01-25 07:06:00,
2013-01-25 01:21:00,52.8,43.0,30.06,WNW,283,2.0,3.0,70,0.00,,,0.00,weatherlink.com 1.10,2013-01-25 07:21:00,
2013-01-25 01:36:00,52.5,43.0,30.05,WSW,252,2.0,3.0,70,0.00,,,0.00,weatherlink.com 1.10,2013-01-25 07:36:00,
2013-01-25 01:51:00,52.3,43.0,30.06,WNW,291,3.0,4.0,71,0.00,,,0.00,weatherlink.com 1.10,2013-01-25 07:51:00,
2013-01-25 02:07:00,52.0,43.0,30.07,NW,323,5.0,5.0,71,0.00,,,0.00,weatherlink.com 1.10,2013-01-25 08:07:00,
2013-01-25 02:22:00,51.3,43.0,30.08,NNW,328,6.0,8.0,73,0.00,,,0.00,weatherlink.com 1.10,2013-01-25 08:22:00,
2013-01-25 02:37:00,50.6,42.0,30.08,NNW,346,5.0,11.0,73,0.00,,,0.00,weatherlink.com 1.10,2013-01-25 08:37:00,
2013-01-25 02:52:00,49.9,42.0,30.08,NW,325,3.0,4.0,74,0.00,,,0.00,weatherlink.com 1.10,2013-01-25 08:52:00,
2013-01-25 03:07:00,49.5,42.0,30.07,NW,316,3.0,5.0,75,0.00,,,0.00,weatherlink.com 1.10,2013-01-25 09:07:00,
2013-01-25 03:22:00,49.0,42.0,30.07,NNE,13,0.0,1.0,77,0.00,,,0.00,weatherlink.com 1.10,2013-01-25 09:22:00,
2013-01-25 03:37:00,48.9,42.0,30.07,NW,304,2.0,3.0,77,0.00,,,0.00,weatherlink.com 1.10,2013-01-25 09:37:00,
2013-01-25 03:52:00,48.9,42.0,30.07,WNW,297,2.0,3.0,77,0.00,,,0.00,weatherlink.com 1.10,2013-01-25 09:52:00,
2013-01-25 04:07:00,48.8,42.0,30.06,WNW,297,3.0,4.0,78,0.00,,,0.00,weatherlink.com 1.10,2013-01-25 10:07:00,
2013-01-25 04:22:00,48.7,42.0,30.06,West,266,3.0,3.0,78,0.00,,,0.00,weatherlink.com 1.10,2013-01-25 10:22:00,
2013-01-25 04:37:00,48.5,42.0,30.07,NW,307,2.0,5.0,79,0.00,,,0.00,weatherlink.com 1.10,2013-01-25 10:37:00,
2013-01-25 04:52:00,48.2,41.0,30.06,WSW,256,1.0,4.0,77,0.00,,,0.00,weatherlink.com 1.10,2013-01-25 10:52:00,
2013-01-25 05:07:00,48.1,42.0,30.08,WNW,298,2.0,5.0,80,0.00,,,0.00,weatherlink.com 1.10,2013-01-25 11:07:00,
2013-01-25 05:22:00,48.1,43.0,30.07,NNW,330,3.0,5.0,81,0.00,,,0.00,weatherlink.com 1.10,2013-01-25 11:22:00,
2013-01-25 05:37:00,48.0,43.0,30.08,NW,325,4.0,5.0,82,0.00,,,0.00,weatherlink.com 1.10,2013-01-25 11:37:00,
2013-01-25 05:52:00,47.8,43.0,30.09,NNW,329,3.0,7.0,83,0.00,,,0.00,weatherlink.com 1.10,2013-01-25 11:52:00,
2013-01-25 06:07:00,47.7,44.0,30.09,NW,316,6.0,6.0,86,0.00,,,0.00,weatherlink.com 1.10,2013-01-25 12:07:00,
2013-01-25 06:22:00,47.8,45.0,30.09,NNW,330,3.0,7.0,90,0.00,,,0.00,weatherlink.com 1.10,2013-01-25 12:22:00,
2013-01-25 06:37:00,48.0,46.0,30.11,NNW,330,4.0,7.0,92,0.00,,,0.00,weatherlink.com 1.10,2013-01-25 12:37:00,
2013-01-25 06:52:00,48.3,46.0,30.12,NNW,327,3.0,5.0,92,0.00,,,0.00,weatherlink.com 1.10,2013-01-25 12:52:00,
2013-01-25 07:07:00,49.0,47.0,30.13,NNW,335,1.0,4.0,93,0.00,,,0.00,weatherlink.com 1.10,2013-01-25 13:07:00,
2013-01-25 07:22:00,49.4,48.0,30.15,NW,314,3.0,8.0,94,0.00,,,0.00,weatherlink.com 1.10,2013-01-25 13:22:00,
2013-01-25 07:37:00,49.5,48.0,30.15,NNW,332,2.0,7.0,95,0.00,,,0.00,weatherlink.com 1.10,2013-01-25 13:37:00,
2013-01-25 07:52:00,49.5,48.0,30.15,NW,319,2.0,7.0,95,0.00,,,0.00,weatherlink.com 1.10,2013-01-25 13:52:00,
2013-01-25 08:07:00,48.8,47.0,30.15,NNE,18,3.0,7.0,94,0.00,,,0.00,weatherlink.com 1.10,2013-01-25 14:07:00,
2013-01-25 08:22:00,48.5,47.0,30.16,NE,43,4.0,11.0,95,0.00,,,0.00,weatherlink.com 1.10,2013-01-25 14:22:00,
2013-01-25 08:38:00,48.1,47.0,30.16,NE,45,3.0,6.0,95,0.00,,,0.00,weatherlink.com 1.10,2013-01-25 14:38:00,
2013-01-25 08:53:00,47.5,46.0,30.17,NE,35,4.0,9.0,95,0.00,,,0.00,weatherlink.com 1.10,2013-01-25 14:53:00,
2013-01-25 09:08:00,47.3,46.0,30.18,NNE,31,3.0,8.0,94,0.00,,,0.00,weatherlink.com 1.10,2013-01-25 15:08:00,
2013-01-25 09:23:00,47.2,45.0,30.18,North,353,6.0,8.0,93,0.00,,,0.00,weatherlink.com 1.10,2013-01-25 15:23:00,
2013-01-25 09:38:00,46.9,45.0,30.19,North,8,6.0,7.0,93,0.00,,,0.00,weatherlink.com 1.10,2013-01-25 15:38:00,
2013-01-25 09:53:00,46.3,44.0,30.21,NW,304,3.0,8.0,93,0.00,,,0.00,weatherlink.com 1.10,2013-01-25 15:53:00,
2013-01-25 10:08:00,46.7,45.0,30.22,NNW,335,3.0,9.0,94,0.00,,,0.00,weatherlink.com 1.10,2013-01-25 16:08:00,
2013-01-25 10:23:00,47.8,46.0,30.22,North,4,6.0,10.0,92,0.00,,,0.00,weatherlink.com 1.10,2013-01-25 16:23:00,
2013-01-25 10:38:00,48.1,45.0,30.22,NNE,27,5.0,9.0,88,0.00,,,0.00,weatherlink.com 1.10,2013-01-25 16:38:00,
2013-01-25 10:53:00,47.0,44.0,30.22,North,3,6.0,11.0,89,0.00,,,0.00,weatherlink.com 1.10,2013-01-25 16:53:00,
2013-01-25 11:08:00,47.2,44.0,30.21,NW,319,4.0,7.0,89,0.00,,,0.00,weatherlink.com 1.10,2013-01-25 17:08:00,
2013-01-25 11:23:00,47.9,44.0,30.21,NNE,26,4.0,8.0,86,0.00,,,0.00,weatherlink.com 1.10,2013-01-25 17:23:00,
2013-01-25 11:38:00,47.9,44.0,30.21,North,357,6.0,10.0,85,0.00,,,0.00,weatherlink.com 1.10,2013-01-25 17:38:00,
2013-01-25 11:53:00,47.8,44.0,30.20,NE,34,9.0,12.0,85,0.00,,,0.00,weatherlink.com 1.10,2013-01-25 17:53:00,
2013-01-25 12:08:00,47.7,43.0,30.19,NNW,335,3.0,10.0,84,0.00,,,0.00,weatherlink.com 1.10,2013-01-25 18:08:00,
2013-01-25 12:23:00,46.9,43.0,30.19,NNW,346,5.0,9.0,85,0.00,,,0.00,weatherlink.com 1.10,2013-01-25 18:23:00,
2013-01-25 12:38:00,46.7,42.0,30.18,NNE,15,7.0,9.0,84,0.00,,,0.00,weatherlink.com 1.10,2013-01-25 18:38:00,
2013-01-25 12:53:00,47.2,42.0,30.18,NE,37,7.0,8.0,83,0.00,,,0.00,weatherlink.com 1.10,2013-01-25 18:53:00,
2013-01-25 13:08:00,47.1,42.0,30.18,North,11,8.0,8.0,83,0.00,,,0.00,weatherlink.com 1.10,2013-01-25 19:08:00,
2013-01-25 13:23:00,46.9,42.0,30.18,NNW,345,2.0,9.0,83,0.00,,,0.00,weatherlink.com 1.10,2013-01-25 19:23:00,
2013-01-25 13:38:00,47.2,42.0,30.18,North,359,3.0,8.0,83,0.00,,,0.00,weatherlink.com 1.10,2013-01-25 19:38:00,
2013-01-25 13:53:00,48.3,43.0,30.18,NNW,343,2.0,7.0,81,0.00,,,0.00,weatherlink.com 1.10,2013-01-25 19:53:00,
2013-01-25 14:08:00,48.6,43.0,30.18,NNW,333,4.0,9.0,80,0.00,,,0.00,weatherlink.com 1.10,2013-01-25 20:08:00,
2013-01-25 14:23:00,48.7,42.0,30.17,NW,323,5.0,10.0,79,0.00,,,0.00,weatherlink.com 1.10,2013-01-25 20:23:00,
2013-01-25 14:38:00,49.5,43.0,30.16,NW,311,3.0,9.0,77,0.00,,,0.00,weatherlink.com 1.10,2013-01-25 20:38:00,
2013-01-25 14:53:00,49.6,42.0,30.17,NNW,342,5.0,8.0,76,0.00,,,0.00,weatherlink.com 1.10,2013-01-25 20:53:00,
2013-01-25 15:08:00,49.5,42.0,30.17,North,6,3.0,11.0,76,0.00,,,0.00,weatherlink.com 1.10,2013-01-25 21:08:00,
2013-01-25 15:23:00,49.4,42.0,30.17,NNW,341,4.0,9.0,77,0.00,,,0.00,weatherlink.com 1.10,2013-01-25 21:23:00,
2013-01-25 15:38:00,49.1,42.0,30.18,NNE,23,7.0,8.0,77,0.00,,,0.00,weatherlink.com 1.10,2013-01-25 21:38:00,
2013-01-25 15:53:00,49.1,42.0,30.18,NNE,20,5.0,8.0,77,0.00,,,0.00,weatherlink.com 1.10,2013-01-25 21:53:00,
2013-01-25 16:08:00,48.8,42.0,30.18,North,354,3.0,11.0,77,0.00,,,0.00,weatherlink.com 1.10,2013-01-25 22:08:00,
2013-01-25 16:23:00,49.0,42.0,30.18,North,11,2.0,8.0,77,0.00,,,0.00,weatherlink.com 1.10,2013-01-25 22:23:00,
2013-01-25 16:38:00,49.2,42.0,30.18,NNW,347,4.0,9.0,77,0.00,,,0.00,weatherlink.com 1.10,2013-01-25 22:38:00,
2013-01-25 16:53:00,49.2,42.0,30.18,NNW,338,1.0,8.0,76,0.00,,,0.00,weatherlink.com 1.10,2013-01-25 22:53:00,
2013-01-25 17:08:00,48.8,42.0,30.18,North,353,6.0,8.0,76,0.00,,,0.00,weatherlink.com 1.10,2013-01-25 23:08:00,
2013-01-25 17:23:00,48.9,42.0,30.17,NNE,15,4.0,9.0,76,0.00,,,0.00,weatherlink.com 1.10,2013-01-25 23:23:00,
2013-01-25 17:38:00,49.1,42.0,30.18,NNW,343,3.0,6.0,75,0.00,,,0.00,weatherlink.com 1.10,2013-01-25 23:38:00,
2013-01-25 17:53:00,49.3,42.0,30.18,ENE,75,4.0,6.0,75,0.00,,,0.00,weatherlink.com 1.10,2013-01-25 23:53:00,
2013-01-25 18:08:00,49.6,42.0,30.19,ENE,68,0.0,4.0,74,0.00,,,0.00,weatherlink.com 1.10,2013-01-26 00:08:00,
2013-01-25 18:23:00,49.9,42.0,30.19,NE,53,3.0,6.0,73,0.00,,,0.00,weatherlink.com 1.10,2013-01-26 00:23:00,
2013-01-25 18:38:00,50.0,42.0,30.18,NNE,18,5.0,5.0,73,0.00,,,0.00,weatherlink.com 1.10,2013-01-26 00:38:00,
2013-01-25 18:53:00,50.0,41.0,30.18,NNE,29,4.0,6.0,72,0.00,,,0.00,weatherlink.com 1.10,2013-01-26 00:53:00,
2013-01-25 19:08:00,49.8,41.0,30.18,NNE,25,1.0,7.0,72,0.00,,,0.00,weatherlink.com 1.10,2013-01-26 01:08:00,
2013-01-25 19:23:00,49.5,41.0,30.18,NE,39,5.0,5.0,72,0.00,,,0.00,weatherlink.com 1.10,2013-01-26 01:23:00,
2013-01-25 19:38:00,49.4,40.0,30.18,NNE,21,1.0,7.0,71,0.00,,,0.00,weatherlink.com 1.10,2013-01-26 01:38:00,
2013-01-25 19:53:00,49.3,40.0,30.19,North,349,1.0,5.0,71,0.00,,,0.00,weatherlink.com 1.10,2013-01-26 01:53:00,
2013-01-25 20:08:00,49.3,40.0,30.19,North,356,5.0,6.0,71,0.00,,,0.00,weatherlink.com 1.10,2013-01-26 02:08:00,
2013-01-25 20:23:00,49.3,40.0,30.19,NNE,23,4.0,6.0,71,0.00,,,0.00,weatherlink.com 1.10,2013-01-26 02:23:00,
2013-01-25 20:38:00,49.1,40.0,30.20,NNE,23,3.0,6.0,70,0.00,,,0.00,weatherlink.com 1.10,2013-01-26 02:38:00,
2013-01-25 20:53:00,48.9,39.0,30.19,North,4,2.0,6.0,69,0.00,,,0.00,weatherlink.com 1.10,2013-01-26 02:53:00,
2013-01-25 21:08:00,48.6,39.0,30.20,North,6,3.0,5.0,69,0.00,,,0.00,weatherlink.com 1.10,2013-01-26 03:08:00,
2013-01-25 21:23:00,48.5,39.0,30.20,ENE,57,5.0,5.0,69,0.00,,,0.00,weatherlink.com 1.10,2013-01-26 03:23:00,
2013-01-25 21:38:00,48.5,39.0,30.20,North,10,4.0,5.0,69,0.00,,,0.00,weatherlink.com 1.10,2013-01-26 03:38:00,
2013-01-25 21:53:00,48.7,39.0,30.20,ENE,61,7.0,7.0,69,0.00,,,0.00,weatherlink.com 1.10,2013-01-26 03:53:00,
2013-01-25 22:08:00,48.7,39.0,30.20,North,3,4.0,5.0,69,0.00,,,0.00,weatherlink.com 1.10,2013-01-26 04:08:00,
2013-01-25 22:23:00,48.8,39.0,30.20,NE,38,2.0,6.0,69,0.00,,,0.00,weatherlink.com 1.10,2013-01-26 04:23:00,
2013-01-25 22:38:00,48.8,39.0,30.20,ENE,62,6.0,6.0,69,0.00,,,0.00,weatherlink.com 1.10,2013-01-26 04:38:00,
2013-01-25 22:53:00,48.7,39.0,30.21,North,358,6.0,6.0,70,0.00,,,0.00,weatherlink.com 1.10,2013-01-26 04:53:00,
2013-01-25 23:08:00,48.5,39.0,30.21,NE,50,4.0,7.0,70,0.00,,,0.00,weatherlink.com 1.10,2013-01-26 05:08:00,
2013-01-25 23:23:00,48.4,39.0,30.22,North,4,3.0,4.0,70,0.00,,,0.00,weatherlink.com 1.10,2013-01-26 05:23:00,
2013-01-25 23:38:00,48.5,39.0,30.23,North,5,2.0,8.0,70,0.00,,,0.00,weatherlink.com 1.10,2013-01-26 05:38:00,
2013-01-25 23:53:00,48.4,39.0,30.23,North,5,1.0,6.0,70,0.00,,,0.00,weatherlink.com 1.10,2013-01-26 05:53:00,